Hourly Data Report for October 28, 2013

All times are specified in Local Standard Time (LST). Add 1 hour to adjust for Daylight Saving Time where and when it is observed.

OTTAWA INTL A
ONTARIO

45°19'00.000" N
75°40'00.000" W
114.90 m
6106001
71628
YOW

Download Data

Hourly Data (October 2013)
Hourly Data Report for October 28, 2013
Temp Definition
°C
Dew Point Temp Definition
°C
Rel Hum Definition
%
Wind Dir Definition
10's deg

Wind Spd Definition
km/h
Visibility Definition
km
Stn Press Definition
kPa
Hmdx Definition


Wind Chill Definition


Weather Definition


TIME
00:00 Legend Double Dagger 3.4 0.6 82 21 13 24.1 100.10     LegendNANA
01:00 Legend Double Dagger 3.4 1.1 85 21 10 24.1 100.09     Cloudy
02:00 Legend Double Dagger 3.8 1.2 83 21 10 24.1 100.03     LegendNANA
03:00 Legend Double Dagger 4.4 1.1 79 19 13 24.1 99.96     LegendNANA
04:00 Legend Double Dagger 4.1 2.0 86 20 12 24.1 99.91     Rain
05:00 Legend Double Dagger 4.3 2.5 88 22 17 19.3 99.95     Rain
06:00 Legend Double Dagger 5.0 2.4 83 25 25 19.3 100.05     Rain
07:00 Legend Double Dagger 4.6 2.1 84 30 30 24.1 100.25     Mostly Cloudy
08:00 Legend Double Dagger 4.0 0.5 78 31 36 24.1 100.50     LegendNANA
09:00 Legend Double Dagger 3.2 -2.1 68 30 35 24.1 100.73     LegendNANA
10:00 Legend Double Dagger 4.2 -4.5 53 33 39 24.1 100.89     Mainly Clear
11:00 Legend Double Dagger 4.9 -5.5 47 31 36 24.1 101.03     LegendNANA
12:00 Legend Double Dagger 4.6 -6.1 46 32 32 24.1 101.12     LegendNANA
13:00 Legend Double Dagger 5.3 -6.0 44 33 22 24.1 101.16     Mainly Clear
14:00 Legend Double Dagger 5.3 -6.9 41 33 20 24.1 101.26     LegendNANA
15:00 Legend Double Dagger 4.5 -6.4 45 32 18 24.1 101.32     LegendNANA
16:00 Legend Double Dagger 3.5 -6.5 48 32 18 24.1 101.39     Clear
17:00 Legend Double Dagger 1.6 -6.3 56 32 16 24.1 101.44     LegendNANA
18:00 Legend Double Dagger 0.9 -6.0 60 33 15 24.1 101.52     LegendNANA
19:00 Legend Double Dagger 0.2 -5.8 64 36 22 24.1 101.54     Clear
20:00 Legend Double Dagger -0.3 -5.9 66 35 12 24.1 101.58   -4 LegendNANA
21:00 Legend Double Dagger -1.5 -5.9 72 33 6 24.1 101.63   -4 LegendNANA
22:00 Legend Double Dagger -0.9 -5.9 69 35 8 24.1 101.64   -4 Clear
23:00 Legend Double Dagger -2.3 -5.5 79 32 4 24.1 101.64   -4 LegendNANA

Notes on Data Quality.

Legend

  • E = Estimated
  • M = Missing
  • NA = Not Available
  • ‡ = Partner data that is not subject to review by the National Climate Archives
Date modified: